Location: Chatham Center
(42.4181°N, 73.6140°W)
Time: 11:49:18
(UTC+00:00)

Daily predictions for brighter satellites

Satellite Brightness Start Highest point End
(mag) Time Altitude Azimuth Time Altitude Azimuth Time Altitude Azimuth
CENTAUR R/B 4.1 21:44:37 10° W 21:49:31 26° NNW 21:55:22 10° NNE
Cosmos 2263 Rocket 3.4 21:45:53 10° N 21:49:57 20° NE 21:54:01 10° E
SL-16 R/B 2.7 21:44:33 10° NNE 21:50:48 87° WNW 21:56:59 10° SSW
NOSS 2-3 (C) 4.3 21:52:01 10° S 21:54:53 24° ESE 21:57:44 10° ENE
EXPRESS MD2 4.3 21:53:31 10° S 21:55:11 17° SE 21:57:13 10° E
Cosmos 2151 3.0 21:52:52 10° N 21:56:57 53° E 22:01:01 10° SSE
SAR-Lupe-4 4.4 21:56:14 10° SE 21:59:18 28° ENE 22:02:24 10° N
IGS 5A 3.3 21:55:22 10° SSE 21:59:19 84° ENE 22:03:18 10° N
IRS-1C 4.4 21:56:39 10° SE 22:01:39 43° ENE 22:06:39 10° N
Cosmos 1486 Rocket 4.4 21:57:08 10° SSW 22:02:17 66° WNW 22:07:31 10° NNE
Cosmos 1782 3.4 22:00:18 10° SSW 22:03:48 51° W 22:07:19 10° N
IRIDIUM 103 4.4 22:00:15 10° N 22:05:26 60° E 22:10:34 10° SSE
Cosmos 773 Rocket 4.4 22:00:29 10° NNW 22:05:41 71° WSW 22:10:54 10° S
Cosmos 2227 Rocket 2.6 22:01:52 10° NNW 22:07:13 41° ENE 22:12:31 10° SE
USA 238 DEB 4.0 22:04:46 10° S 22:10:15 39° ESE 22:16:08 10° NE
USA 238 4.1 22:04:54 10° S 22:10:22 38° ESE 22:16:13 10° NE
Cosmos 990 Rocket 4.0 22:07:43 10° S 22:12:43 59° ESE 22:17:47 10° NNE
MOS 1 Rocket 3.8 22:08:17 10° SE 22:12:51 41° ENE 22:17:40 10° N
Cosmos 2084 Rocket 3.3 22:09:43 10° NNW 22:13:56 66° NE 22:18:06 10° SE
Aureole 1 Rocket 4.2 22:12:58 10° SSE 22:16:35 27° E 22:20:55 10° NE
Cosmos 1697 Rocket 2.7 22:12:05 10° SSW 22:17:41 79° ESE 22:23:19 10° NNE
Cosmos 1867 3.6 22:12:58 10° NNW 22:18:23 62° NE 22:23:46 10° SE
Cosmos 1825 Rocket 3.8 22:14:30 10° N 22:18:42 46° ENE 22:22:49 10° SSE
Cosmos 2098 Rocket 4.0 22:16:38 10° SSW 22:20:36 49° WNW 22:25:19 10° N
NOSS 2-3 (E) 3.1 22:17:19 10° SSW 22:20:59 65° ESE 22:24:06 14° NE
Cosmos 1900 4.3 22:16:23 10° NNW 22:21:26 71° ENE 22:26:20 10° SE
NOSS 2-3 (D) 3.2 22:17:48 10° SSW 22:21:30 60° ESE 22:24:33 14° NE
ARIANE 5 R/B 2.4 22:18:45 10° SSE 22:23:45 69° ENE 22:28:51 10° N
IRIDIUM 106 4.3 22:18:31 10° N 22:23:47 88° E 22:28:59 10° S
Cosmos 1655 Rocket 4.2 22:23:39 10° N 22:29:42 49° ENE 22:35:41 10° SSE
UNK 4.1 22:26:11 10° N 22:30:44 67° WNW 22:35:15 10° SSW
SJ-6F 4.4 22:31:32 10° SSE 22:35:24 55° ENE 22:39:21 10° N
Cosmos 1076 Rocket 3.8 22:31:29 10° N 22:35:38 44° ENE 22:39:46 10° SSE
ATLAS CENTAUR R/B 4.0 22:34:40 10° WNW 22:36:52 17° WSW 22:39:01 10° SSW
SMAP 3.5 22:32:49 10° S 22:37:26 66° WSW 22:42:05 10° NNW
SAR-Lupe-3 3.9 22:36:47 31° NE 22:37:35 45° ESE 22:39:59 10° S
COSMOS 2455 4.2 22:34:36 10° SE 22:38:20 17° ESE 22:39:11 17° E
Cosmos 1607 4.5 22:32:43 10° NW 22:38:53 63° WSW 22:45:06 10° SSE
Cosmos 2058 Rocket 3.7 22:35:16 10° SSE 22:39:18 34° E 22:42:19 16° NNE
COSMO-SKYMED 1 3.4 22:38:13 22° ENE 22:39:43 27° E 22:43:13 10° SSE
SPOT 1/Viking Rocket 3.7 22:36:34 10° SE 22:41:31 48° ENE 22:46:31 10° N
Landsat 7 3.9 22:37:31 10° S 22:42:09 76° WSW 22:46:50 10° NNW
Gbstr 26 Del rocket 3.4 22:39:38 10° WSW 22:43:36 47° NNW 22:45:42 22° NE
Cosmos 1606 Rocket 4.1 22:45:32 10° SSW 22:49:52 61° W 22:54:16 10° N
IRS-P3 4.0 22:45:43 10° SSE 22:51:01 84° ENE 22:56:22 10° NNW
Cosmos 2082 4.4 22:49:28 10° N 22:54:33 32° NE 22:56:34 25° E
CZ-2D R/B 4.0 22:54:07 10° S 22:57:07 43° W 23:00:08 10° NNW
Cosmos 2297 Rocket 4.0 22:54:37 10° NW 22:59:38 33° WSW 23:04:37 10° SSW
Resurs 1-3 3.7 22:57:57 10° SE 23:02:03 46° ENE 23:06:11 10° N
Cosmos 1538 Rocket 4.0 22:57:04 10° NNW 23:02:20 63° ENE 23:07:37 10° SSE
SL-16 R/B 4.0 23:00:22 10° SE 23:01:52 14° SE 23:01:52 14° SE
CZ-4C R/B 3.6 22:57:12 10° NW 23:04:30 64° WSW 23:13:17 10° SSE
Meteor 1-26 Rocket 4.1 23:03:26 10° S 23:08:45 61° E 23:12:48 17° NNE
Okean 1 3.1 23:10:04 10° S 23:13:11 55° SE 23:13:11 55° SE
Nadezhda 2 Rocket 4.4 23:12:08 10° N 23:18:09 57° ENE 23:24:08 10° SSE
Cosmos 2219 3.2 23:14:47 10° NNW 23:20:29 60° ENE 23:24:18 21° SE
Cosmos 1980 Rocket 2.4 23:15:37 10° SSW 23:21:15 72° WNW 23:25:04 21° NNE
Cosmos 1553 Rocket 3.9 23:16:52 10° S 23:22:55 67° E 23:29:05 10° NNE
Spot 4 Rocket 3.9 23:18:23 10° SSE 23:23:29 83° ENE 23:28:37 10° NNW
Cosmos-2242 2.9 23:19:36 10° S 23:23:51 83° W 23:25:43 33° N
YAOGAN 1 2.4 23:20:53 10° SSE 23:25:08 86° ENE 23:29:25 10° NNW
Cosmos 1844 Rocket 4.4 23:22:14 10° N 23:23:59 17° NNE 23:23:59 17° NNE
Cosmos 1898 Rocket 3.4 23:23:27 10° SSW 23:28:36 85° WNW 23:30:53 34° NNE
OceanSat 1 rocket 4.4 23:26:16 10° SSE 23:30:59 73° ENE 23:35:41 10° N
SKYMED 2 4.3 23:27:41 15° N 23:31:04 51° WNW 23:35:16 10° SSW
Cosmos 2263 Rocket 2.4 23:28:47 10° NNW 23:34:27 73° WSW 23:40:06 10° SSE
SL-24 R/B - RUBIN 2 4.1 23:29:12 10° SSW 23:34:30 55° SE 23:34:30 55° SE
Cosmos 2369 3.6 23:28:58 10° SSW 23:34:41 83° ESE 23:36:34 45° NNE
Helios 1A Rocket 4.4 23:46:13 24° SSW 23:46:13 24° SSW 23:47:43 10° SSW
Cosmos 1937 Rocket 3.4 23:41:51 10° SSW 23:47:02 80° WNW 23:47:52 62° N
Meteor 1-17 Rocket 4.5 23:42:00 10° N 23:47:34 78° E 23:53:04 10° SSE
Cosmos 858 Rocket 4.5 23:44:14 10° SSW 23:48:48 67° SSE 23:48:48 67° SSE
Cosmos 2227 Rocket 4.1 23:46:14 10° NW 23:51:02 29° WSW 23:55:50 10° SSW
